CW8081 Weather Reports


time (UTC)temp
F
wind
direction
speed
knots
gust
knots
rain 1hr
in
rain 24hr
in
rain mn
in
humidity
%
barometer
mb
20260507014604 58 5 0.0 0.9 0.00 0.00 0.00 84 1014.8
20260507011104 59 5 0.0 0.0 0.00 0.00 0.00 84 1014.8
20260507010604 59 5 0.0 0.0 0.00 0.00 0.00 83 1014.8
20260507003604 59 5 0.0 0.0 0.00 0.00 0.00 84 1014.8
20260507001104 59 5 0.0 0.9 0.00 0.00 0.00 84 1014.8
20260507000105 59 5 0.0 0.9 0.00 0.00 0.00 84 1014.8
20260506234105 60 5 0.0 0.0 0.00 0.00 0.00 83 1015.0
20260506230105 60 5 0.0 0.0 0.00 0.00 0.00 82 1015.1
20260506221104 62 5 0.0 0.0 0.00 0.00 0.00 83 1015.2
20260506220104 62 5 0.0 0.0 0.00 0.00 0.00 83 1015.2
20260506211604 64 357 0.0 0.0 0.00 0.00 0.00 83 1015.2
20260506211106 64 0 0.0 0.0 0.00 0.00 0.00 83 1015.2
20260506210105 64 355 0.0 0.0 0.00 0.00 0.00 83 1015.2
20260506204604 64 0 0.0 0.0 0.00 0.00 0.00 84 1015.1
20260506204104 64 266 0.0 0.0 0.00 0.00 0.00 84 1015.1
20260506201604 64 356 0.0 0.0 0.00 0.00 0.00 84 1014.8
20260506200604 64 296 0.0 0.0 0.00 0.00 0.00 84 1014.8
20260506194604 63 0 0.0 0.0 0.00 0.00 0.00 84 1014.4
20260506193604 63 0 0.0 0.0 0.00 0.00 0.00 83 1014.4
20260506191604 63 0 0.0 0.0 0.00 0.00 0.00 83 1014.4
20260506183604 64 0 0.0 0.0 0.00 0.00 0.00 82 1013.9
20260506181604 65 0 0.0 0.0 0.00 0.00 0.00 81 1013.9
20260506180604 65 0 0.0 0.0 0.00 0.00 0.00 81 1013.7
20260506174104 66 0 0.0 0.0 0.00 0.00 0.00 80 1013.5
20260506173104 66 0 0.0 0.9 0.00 0.00 0.00 79 1013.4
20260506170604 68 0 0.0 0.0 0.00 0.00 0.00 76 1013.4
20260506164604 70 0 0.0 0.0 0.00 0.00 0.00 73 1013.4
20260506164104 70 0 0.0 0.0 0.00 0.00 0.00 72 1013.4
20260506163104 71 0 0.0 0.0 0.00 0.00 0.00 70 1013.4
20260506161604 72 0 0.0 0.0 0.00 0.00 0.00 67 1013.3
20260506151105 75 0 0.0 0.0 0.00 0.00 0.00 59 1013.4
20260506150104 76 0 0.0 0.9 0.00 0.00 0.00 57 1013.6
20260506144604 77 0 0.0 0.0 0.00 0.00 0.00 55 1013.6
20260506143104 79 0 0.0 0.9 0.00 0.00 0.00 51 1013.6
20260506134604 78 0 0.0 0.0 0.00 0.00 0.00 45 1013.7
20260506133604 78 0 0.0 0.0 0.00 0.00 0.00 48 1013.7
20260506131605 77 0 0.0 0.9 0.00 0.00 0.00 54 1014.0
20260506131104 77 0 0.0 0.0 0.00 0.00 0.00 53 1014.0
20260506130604 78 0 0.0 0.0 0.00 0.00 0.00 53 1014.0
20260506130104 78 359 0.0 1.7 0.00 0.00 0.00 52 1014.0
20260506124604 78 0 0.0 0.0 0.00 0.00 0.00 52 1014.3
20260506123604 78 0 0.0 0.0 0.00 0.00 0.00 53 1014.3
20260506123104 77 0 0.0 0.0 0.00 0.00 0.00 54 1014.3
20260506121104 77 0 0.0 0.0 0.00 0.00 0.00 55 1014.4
20260506120604 77 0 0.0 0.0 0.00 0.00 0.00 53 1014.4
20260506111604 74 0 0.0 0.0 0.00 0.00 0.00 56 1014.8
20260506110104 74 350 0.0 0.0 0.00 0.00 0.00 55 1015.4
20260506104104 73 356 0.0 0.0 0.00 0.00 0.00 52 1015.4
20260506093604 73 0 0.0 0.0 0.00 0.00 0.00 49 1015.4
20260506090604 72 357 0.0 0.0 0.00 0.00 0.00 51 1015.4
20260506090104 71 0 0.0 0.0 0.00 0.00 0.00 54 1015.4
20260506084604 69 0 0.0 0.0 0.00 0.00 0.00 62 1015.4
20260506083604 68 357 0.0 0.0 0.00 0.00 0.00 62 1015.4
20260506083104 68 0 0.0 0.0 0.00 0.00 0.00 65 1015.4
20260506081104 68 0 0.0 0.0 0.00 0.00 0.00 67 1015.4
20260506080104 67 0 0.0 0.0 0.00 0.00 0.00 68 1015.4
20260506073106 68 0 0.0 0.0 0.00 0.00 0.00 65 1015.2
20260506061104 63 12 0.0 0.9 0.00 0.00 0.00 73 1015.5
20260506060104 62 18 0.0 0.9 0.00 0.00 0.00 74 1015.5
20260506050604 58 55 0.0 0.0 0.00 0.00 0.00 80 1015.5
20260506043604 56 57 0.0 0.0 0.00 0.00 0.00 81 1015.2
20260506040604 54 57 0.0 4.3 0.00 0.00 0.00 80 1014.9
20260506040104 54 57 0.0 1.7 0.00 0.00 0.00 80 1014.9
20260506034604 54 57 0.0 0.0 0.00 0.00 0.00 79 1014.7
20260506034104 54 57 0.0 0.0 0.00 0.00 0.00 79 1014.7
20260506030605 55 44 0.0 0.0 0.00 0.00 0.00 79 1014.7
20260506023104 56 44 0.0 0.0 0.00 0.00 0.00 78 1014.9
20260506021604 56 44 0.0 0.0 0.00 0.00 0.00 78 1014.9
20260506020604 56 45 0.0 0.0 0.00 0.00 0.00 77 1014.9
20260506020104 56 45 0.0 2.6 0.00 0.00 0.00 77 1014.7